{"data":{"norad_id":64058,"intl_designator":"2025-105A","name":"TIANQI-16","alt_names":[],"object_type":"PAYLOAD","status":"ACTIVE","operator":null,"country":"PRC","launch_date":"2025-05-19","launch_site_code":"YSLA","launch_vehicle":null,"mission":null,"orbit_class":"UNKNOWN","rcs_meters":null,"size_class":null,"mass_kg":null,"dimensions":null,"purposes":[],"wikipedia_slug":null,"has_3d_model":false,"image_url":null,"decayed_at":null,"tle_current":{"epoch":"2026-05-25T04:55:36.554016Z","epoch_age_seconds":60475,"freshness":"FRESH","line1":"1 64058U 25105A   26145.20528419 -.00000078  00000+0  34575-4 0  9998","line2":"2 64058  44.9823 124.6205 0012671 272.8059  87.1323 13.99144579 51973","mean_motion":13.99144579,"eccentricity":0.0012671,"inclination_deg":44.9823,"raan_deg":124.6205,"arg_perigee_deg":272.8059,"mean_anomaly_deg":87.1323,"bstar":3.4575e-5,"rev_number":5197,"period_min":102.92002853838,"perigee_km":887.5408023628,"apogee_km":905.9768433571,"semimajor_km":7274.8958228599,"source":"CELESTRAK","updated_at":"2026-05-25T13:38:04.198038Z"}}}